Flag for U.S.A. Weather past 2 weeks in Marengo, Indiana, U.S.A.

Now
37 °F

Overcast.


Feels Like: 34 °F
Forecast: 29 / 54 °F
Wind: 3 mph from East

Location: Bowling Green-Warren County Regional Airport

Current Time: Mar 3, 2015 at 2:39:54 AM

Latest Report: Mar 3, 2015 at 1:53 AM


Visibility: 10 mi

Pressure: 30.22 "Hg

Humidity: 60%

Dew point: 24 °F

Location of MarengoLocation

Historic Weather in Marengo — Graph

°F

Marengo temperature yesterday

Maximum temperature yesterday: 45 °F (at 2:53 PM)
Minimum temperature yesterday: 29 °F (at 6:53 AM)
Average temperature yesterday: 37 °F

Past Weeks' High & Low Weather Summary

 TemperatureHumidityPressure
High49 °F (Mar 1, 3:53 PM)93% (Feb 21, 3:53 PM)30.67 "Hg (Feb 21, 3:53 PM)
Low-7 °F (Feb 19, 3:53 AM)36% (Feb 20, 2:53 PM)29.83 "Hg (Feb 21, 1:53 PM)
Average25 °F65%30.26 "Hg
* Reported Feb 16 12:53 AM — Mar 3 12:53 AM, Marengo, Weather by CustomWeather, © 2015

Note: Actual official high and low records may vary slightly from our data, if they occured in-between our weather recording intervals... More about our weather records

Advertising

Marengo weather history for previous 24 hours

 ConditionsComfort  
Time TempWeatherWind HumidityBarometerVisibility
12:53 AM
Tue, Mar 3
37 °FOvercast.6 mph60%30.23 "Hg10 mi
11:53 PM
Mon, Mar 2
37 °FPassing clouds.7 mph57%30.26 "Hg10 mi
10:53 PM37 °FPassing clouds.9 mph57%30.30 "Hg10 mi
9:53 PM39 °FOvercast.9 mph50%30.32 "Hg10 mi
8:53 PM40 °FOvercast.7 mph47%30.34 "Hg10 mi
7:53 PM39 °FClear.6 mph48%30.37 "Hg10 mi
6:53 PM41 °FClear.6 mph43%30.37 "Hg10 mi
5:53 PM43 °FClear.9 mph42%30.37 "Hg10 mi
4:53 PM45 °FSunny.12 mph38%30.37 "Hg10 mi
3:53 PM45 °FSunny.7 mph44%30.40 "Hg10 mi
2:53 PM45 °FCool.9 mph44%30.41 "Hg10 mi
1:53 PM42 °FSunny.9 mph47%30.45 "Hg10 mi
12:53 PM40 °FSunny.8 mph53%30.49 "Hg10 mi
11:53 AM38 °FSunny.12 mph55%30.51 "Hg10 mi
10:53 AM35 °FSunny.10 mph67%30.53 "Hg10 mi
9:53 AM33 °FSunny.9 mph66%30.53 "Hg10 mi
8:53 AM30 °FSunny.8 mph72%30.51 "Hg9 mi
7:53 AM29 °FSunny.5 mph75%30.52 "Hg9 mi
6:53 AM29 °FScattered clouds.8 mph75%30.51 "Hg10 mi
5:53 AM31 °FMostly cloudy.8 mph79%30.48 "Hg10 mi
4:53 AM32 °FMostly cloudy.8 mph85%30.46 "Hg8 mi
3:53 AM32 °FIce fog.8 mph88%30.43 "Hg6 mi
2:53 AM33 °FFog.7 mph88%30.42 "Hg3 mi
Weather by CustomWeather, © 2015

See weather overviewHow to use our weather pages